Powrót do katalogu

THORAD AGENA D DEB

AktywnyLEO
NORAD 5635·DEBRIS·🇺🇸 United States

Wystrzelony Sep 30, 1969 z Vandenberg Space Force Base

Loading…

Następne Przeloty (najbliższe 24 godziny)

TLE

ŚwieżeSource: Space-Track

Epoka: Sep 14, 2026, 06:00 UTC

1 05635U 69082JF  26257.25058181  .00001767  00000-0  49033-3 0  9999
2 05635  69.9380 340.3256 0005483 310.3728  49.6925 14.48112501881383

Śledź THORAD AGENA D DEB w czasie rzeczywistym z AllMySat

Download on the App Store